Dati Storici

Data ora Umidita' aria (%) Temperatura aria (°C) Rad globale (W/m²) Gonioanemometro (°) Tacoanemometro (m/s) Pioggia (mm)
27-10-2012 02:10 96.7 % 12.496 2.939 5.871 0.811 0
27-10-2012 02:00 96.7 % 12.453 3.092 3.952 1.237 0
27-10-2012 01:50 96.6 % 12.474 3.118 39.832 0.943 0
27-10-2012 01:40 96.7 % 12.54 3.028 26.56 1.134 0
27-10-2012 01:30 96.7 % 12.51 2.964 72.312 0.603 0
27-10-2012 01:20 96.7 % 12.468 2.99 34.679 1.234 0
27-10-2012 01:10 96.7 % 12.44 3.015 42.653 0.725 0
27-10-2012 01:00 96.6 % 12.392 2.951 52.084 1.287 0
27-10-2012 00:50 96.6 % 12.31 2.821 32.061 0.51 0
27-10-2012 00:40 96.5 % 12.251 2.859 91.356 1.105 0
27-10-2012 00:30 96.4 % 12.204 2.859 55.038 2.517 0
27-10-2012 00:20 96.4 % 12.184 2.859 73.071 0.974 0
27-10-2012 00:10 96.4 % 12.17 2.961 65.039 1.642 0
27-10-2012 00:00 96.4 % 12.161 2.808 91.96 0.766 0
26-10-2012 23:50 96.3 % 12.151 2.961 22.077 2.011 1
26-10-2012 23:40 96.3 % 12.121 2.826 22.952 1.988 0
26-10-2012 23:30 96.2 % 12.116 2.877 21.216 1.468 1
26-10-2012 23:20 96.2 % 12.075 2.852 4.549 1.993 1
26-10-2012 23:10 96.2 % 12.074 2.916 336.897 1.051 1
26-10-2012 23:00 96.1 % 12.02 3.018 100.487 1.459 1

I dati sono presentati in modo automatico a scopo informativo. In seguito a verifica i dati possono subire modifiche o essere invalidati e non riportati negli archivi definitivi.